sat.trackr.live / text

‹ back to catalog

STARLINK-36101

NORAD 66867 · 2025-281V

PAYLOAD ACTIVE UNKNOWN

§ Identity

Operator
Country
US
Launch date
2025-12-02
Launch site
AFETR
Launch vehicle
Mass (kg)
RCS (m²)

Purposes: comms

External: N2YO · Heavens-Above · Gunter

§ Orbital elements

Epoch: 2026-05-24T17:57:47.103840Z

Period
94.27 min
Inclination
42.9989°
Eccentricity
0.0000664
Mean motion
15.27588793 rev/d
Perigee alt
482.6 km
Apogee alt
483.5 km
Semi-major
6,861.2 km
B*
4.8377e-4
RAAN
274.2886°
Arg perigee
277.8421°
Mean anomaly
82.2355°
Rev number
2,780

§ Raw data

STARLINK-361011 66867U 25281V   26144.74846185  .00013077  00000+0  48377-3 0  99902 66867  42.9989 274.2886 0000664 277.8421  82.2355 15.27588793 27807

JSON: /api/v1/satellites/66867 · /tle

For live sub-satellite position, see the globe view (requires WebGL).

§ Visibility from observer

Set your observer location to see the next 7 days of passes ≥ 10°. The values pass through the URL so the page stays shareable.

No JS? Fill the form by hand. The geolocation button needs JavaScript.